Location: Newark
(44.9861°N, 0.2536°E)
Time: 22:03:30
(UTC+00:00)

HuskySat-1 - Pass Details

Date: 19 July 2020
Orbit: 457 x 471 km, 51.6° (Epoch: 10 August)

Event Time Altitude Azimuth Distance (km) Brightness Sun altitude
Rises 20:18:55 0° 215° (SW) 2,495 ? -6.6°
Reaches altitude 10° 20:21:11 10° 205° (SSW) 1,620 ? -6.9°
Maximum altitude 20:24:30 34° 140° (SE) 794 ? -7.4°
Drops below altitude 10° 20:27:51 10° 74° (ENE) 1,622 ? -7.8°
Sets 20:30:07 0° 65° (ENE) 2,498 ? -8.1°
